Location: Nemiskam
(49.4820°N, 111.2775°W)
Time: 09:20:48
(UTC+00:00)

Envisat - Visible Passes

Search period start: 30 November 2021 00:00
Search period end: 10 December 2021 00:00
Orbit: 764 x 766 km, 98.2° (Epoch: 29 November)

Date Brightness Start Highest point End Pass type
(mag) Time Alt. Az. Time Alt. Az. Time Alt. Az.
30 Nov 6.0 01:00:27 10° WSW 01:03:25 15° W 01:06:25 10° NW visible
30 Nov 5.4 11:23:55 10° NE 11:27:44 21° E 11:31:31 10° SE visible
30 Nov 2.9 13:02:08 10° N 13:07:10 61° WNW 13:12:10 10° SSW visible
01 Dec 5.1 00:21:40 10° SSW 00:26:09 31° W 00:30:39 10° NNW visible
01 Dec 3.3 12:25:14 10° NNE 12:30:19 68° ESE 12:35:23 10° S visible
01 Dec 4.2 14:05:08 10° N 14:08:52 21° WNW 14:12:36 10° WSW visible
02 Dec 4.6 11:48:40 10° NNE 11:53:17 33° E 11:57:52 10° SSE visible
02 Dec 3.4 13:27:39 10° N 13:32:21 38° WNW 13:37:01 10° SW visible
03 Dec 5.8 00:48:08 10° SW 00:51:43 19° W 00:55:19 10° NW visible
03 Dec 5.6 11:12:46 10° NE 11:16:02 17° E 11:19:17 10° SE visible
03 Dec 2.9 12:50:32 10° N 12:55:38 76° WNW 13:00:42 10° SSW visible
04 Dec 4.7 00:09:48 10° SSW 00:14:31 38° W 00:19:15 10° NNW visible
04 Dec 3.6 12:13:43 10° NNE 12:18:43 55° E 12:23:42 10° S visible
04 Dec 3.9 13:53:20 10° N 13:57:26 25° WNW 14:01:31 10° WSW visible
05 Dec 6.2 01:15:46 10° WSW 01:17:24 11° W 01:19:02 10° WNW visible
05 Dec 4.9 11:37:18 10° NE 11:41:38 27° E 11:45:55 10° SSE visible
05 Dec 3.2 13:15:59 10° N 13:20:52 47° WNW 13:25:42 10° SW visible
06 Dec 5.6 00:36:00 10° SW 00:40:02 24° W 00:44:06 10° NW visible
06 Dec 5.9 11:01:49 10° NE 11:04:19 14° E 11:06:48 10° ESE visible
06 Dec 2.9 12:38:58 10° NNE 12:44:05 88° ESE 12:49:10 10° SSW visible
06 Dec 4.4 14:19:17 10° NNW 14:22:26 17° NW 14:25:34 10° W visible
06 Dec 4.3 23:58:01 10° S 00:02:53 47° W 00:07:48 10° NNW visible
07 Dec 4.1 12:02:15 10° NNE 12:07:07 44° E 12:11:58 10° S visible
07 Dec 3.7 13:41:36 10° N 13:45:59 30° WNW 13:50:22 10° WSW visible
08 Dec 6.0 01:02:55 10° WSW 01:05:40 14° W 01:08:25 10° NW visible
08 Dec 5.2 11:26:01 10° NE 11:29:57 22° E 11:33:53 10° SE visible
08 Dec 3.0 13:04:21 10° N 13:09:21 58° WNW 13:14:19 10° SSW visible
09 Dec 5.2 00:23:59 10° SSW 00:28:22 29° W 00:32:47 10° NNW visible
09 Dec 6.1 10:51:29 10° ENE 10:52:34 11° E 10:53:41 10° E visible
09 Dec 3.2 12:27:25 10° NNE 12:32:31 72° ESE 12:37:35 10° S visible
09 Dec 4.2 14:07:24 10° NNW 14:11:01 20° WNW 14:14:38 10° WSW visible
